[[{"header":{"parameterUnit":"m.s-1","parameterCategory":1,"la1":30.2991,"la2":30.254,"lo1":-89.0895,"lo2":-89.0444,"dy":0.0017,"dx":0.0017,"nx":28,"ny":28,"refTime":"2024-03-29T21:00:00:Z","depth":0,"parameterNumber":2,"parameterNumberName":"U-component_of_WINDS"},"data":[0,0,0,0,0,0,0,0,0,0,0,0,0,0,0,0,0,0,0,0,0,0,0,0,0,0,0,0,0,0,0,0,0,0,0,0,0,0,0,0,0,0,0,0,0,0,0,0,0,0,0,0,0,0,0,0,0,0,-0.8303,-0.8304,0,-0.8344,-0.8345,-0.8345,-0.8359,-0.8358,-0.8358,-0.8358,-0.8401,-0.8402,-0.8403,0,0,0,0,0,0,0,0,0,0,0,0,0,-0.8238,-0.8239,-0.8303,-0.8304,-0.8304,-0.8344,-0.8345,-0.8345,-0.8359,-0.8358,-0.8358,-0.8358,-0.84,-0.8402,-0.8403,0,0,0,0,0,0,0,0,0,0,0,0,0,-0.8272,-0.824,-0.8303,-0.8316,-0.8317,-0.8344,-0.8345,-0.8345,-0.8359,-0.8358,-0.8358,-0.8358,-0.84,-0.8402,-0.8403,-0.8421,0,0,-0.8409,-0.841,0,0,0,0,0,0,0,0,-0.827,-0.8274,-0.8313,-0.8315,-0.8317,-0.8346,-0.8337,-0.8371,-0.8359,-0.8343,-0.8358,-0.8358,-0.8383,-0.8386,-0.8394,-0.8423,-0.8425,-0.841,-0.8411,-0.8412,-0.8412,0,0,0,0,0,0,0,-0.8267,-0.8272,-0.832,-0.8314,-0.8316,-0.832,-0.8324,-0.8344,-0.8364,-0.8344,-0.8345,-0.835,-0.8384,-0.8392,-0.8395,-0.8425,-0.8409,-0.8411,-0.8412,-0.8413,-0.8471,-0.8471,0,0,0,0,0,0,-0.8263,-0.827,-0.8318,-0.8321,-0.8292,-0.8321,-0.8326,-0.8337,-0.8364,-0.8367,-0.835,-0.835,-0.8389,-0.8393,-0.8397,-0.8419,-0.8412,-0.8413,-0.8414,-0.847,-0.8471,-0.8471,0,0,0,0,0,0,-0.8261,-0.8267,-0.8317,-0.8296,-0.8302,-0.8323,-0.8335,-0.8338,-0.8347,-0.8368,-0.8372,-0.8355,-0.8389,-0.8394,-0.8415,-0.8421,-0.8414,-0.8416,-0.847,-0.847,-0.8471,-0.8464,0,0,0,0,0,0,-0.8259,-0.8266,-0.8273,-0.8296,-0.8303,-0.8334,-0.8335,-0.8339,-0.835,-0.8351,-0.8374,-0.8378,-0.8389,-0.8412,-0.8417,-0.8424,-0.8418,-0.8469,-0.847,-0.8471,-0.8464,-0.8464,-0.8465,0,0,0,0,0,-0.8257,-0.8269,-0.8273,-0.8279,-0.8312,-0.8334,-0.8338,-0.8351,-0.835,-0.8357,-0.8371,-0.8377,-0.8419,-0.8414,-0.8419,-0.8427,-0.8469,-0.847,-0.8471,-0.8464,-0.8464,-0.8465,0,0,0,0,0,0,-0.8247,-0.8273,-0.8277,-0.8297,-0.8313,-0.8336,-0.8345,-0.8351,-0.8368,-0.8368,-0.8384,-0.8389,-0.8409,-0.842,-0.8413,-0.8445,-0.8445,-0.8447,-0.8437,-0.8438,-0.8439,-0.8436,-0.8419,0,0,0,0,0,-0.8247,-0.8262,-0.8284,-0.83,-0.8308,-0.8325,-0.8335,-0.8344,-0.8361,-0.8368,-0.8383,-0.84,-0.8417,-0.8428,-0.8445,-0.8466,-0.8471,-0.8474,-0.8474,-0.8474,-0.8476,-0.8488,-0.8489,-0.8474,-0.8474,-0.8474,0,0,-0.8248,-0.8263,-0.8272,-0.8298,-0.8312,-0.8327,-0.8331,-0.8347,-0.8359,-0.837,-0.8391,-0.8403,-0.8423,-0.8443,-0.8453,-0.8453,-0.8481,-0.8475,-0.8475,-0.8477,-0.8489,-0.849,-0.8492,-0.8474,-0.8474,-0.8474,0,0,-0.8257,-0.827,-0.8285,-0.8298,-0.8318,-0.833,-0.8333,-0.8355,-0.8363,-0.8384,-0.8393,-0.8408,-0.8437,-0.8451,-0.8462,-0.8476,-0.8482,-0.8481,-0.8483,-0.8495,-0.8496,-0.8497,-0.8503,-0.8505,-0.8482,-0.8482,-0.8482,0,-0.8255,-0.8279,-0.8291,-0.8308,-0.8319,-0.833,-0.8345,-0.8357,-0.8382,-0.839,-0.839,-0.8427,-0.8441,-0.8465,-0.8469,-0.8477,-0.8482,-0.8479,-0.8495,-0.8496,-0.8498,-0.8503,-0.8505,-0.8482,-0.8482,-0.8482,-0.8482,0,-0.8276,-0.8292,-0.8301,-0.8325,-0.8337,-0.8353,-0.8369,-0.838,-0.8387,-0.8399,-0.842,-0.8437,-0.8458,-0.8464,-0.8472,-0.849,-0.8489,-0.8492,-0.8491,-0.8499,-0.8504,-0.8506,-0.8482,-0.8482,-0.8482,-0.8482,0,0,-0.828,-0.831,-0.8313,-0.8324,-0.8347,-0.836,-0.8377,-0.8397,-0.8406,-0.8423,-0.8437,-0.8462,-0.8464,-0.8477,-0.8486,-0.8496,-0.8506,-0.8497,-0.8498,-0.8499,-0.8528,-0.8526,-0.8528,-0.851,-0.8511,-0.8511,-0.8526,0,-0.8292,-0.8321,-0.8333,-0.8357,-0.8373,-0.8383,-0.8397,-0.8413,-0.8424,-0.844,-0.8452,-0.8469,-0.8471,-0.8479,-0.8489,-0.8503,-0.8513,-0.8502,-0.8524,-0.8525,-0.852,-0.8531,-0.853,-0.8543,-0.8528,-0.8529,-0.8529,0,-0.8311,-0.8327,-0.8352,-0.8374,-0.8381,-0.8393,-0.8413,-0.8427,-0.8445,-0.8453,-0.8466,-0.8475,-0.8493,-0.8491,-0.8516,-0.8508,-0.8518,-0.8527,-0.8527,-0.853,-0.8528,-0.8535,-0.8547,-0.855,-0.8533,-0.8532,-0.8532,0,-0.8312,-0.834,-0.8359,-0.8368,-0.8393,-0.8402,-0.8413,-0.8431,-0.8442,-0.8459,-0.8467,-0.8486,-0.8497,-0.8511,-0.8525,-0.8522,-0.8549,-0.8548,-0.8556,-0.8556,-0.8562,-0.8561,-0.8576,-0.8567,-0.8567,-0.8567,-0.8567,0,-0.8325,-0.834,-0.836,-0.8372,-0.8389,-0.8403,-0.842,-0.8432,-0.8448,-0.8462,-0.8472,-0.8485,-0.8502,-0.8518,-0.8529,-0.8548,-0.8553,-0.856,-0.8562,-0.8559,-0.8558,-0.8566,-0.8566,-0.8568,-0.8568,-0.8567,-0.8567,0,-0.8329,-0.8343,-0.8365,-0.8386,-0.8392,-0.8404,-0.8423,-0.8435,-0.8447,-0.8465,-0.847,-0.8488,-0.8507,-0.8522,-0.8547,-0.8554,-0.8575,-0.8578,-0.8569,-0.857,-0.8578,-0.8577,-0.8599,-0.8603,-0.859,-0.859,-0.859,0,-0.8337,-0.8349,-0.8372,-0.8382,-0.8393,-0.8409,-0.8421,-0.8435,-0.8446,-0.8468,-0.8478,-0.8497,-0.8514,-0.8543,-0.8559,-0.8578,-0.8582,-0.8588,-0.8585,-0.8581,-0.8583,-0.8582,-0.8583,-0.8589,-0.8589,-0.8589,-0.8589,0,-0.8349,-0.8356,-0.8372,-0.839,-0.8404,-0.8419,-0.8435,-0.8443,-0.846,-0.8472,-0.8492,-0.8504,-0.853,-0.8549,-0.857,-0.8581,-0.8588,-0.859,-0.8593,-0.859,-0.8584,-0.8588,-0.857,-0.8589,-0.8589,-0.8589,-0.8589,-0.8589,-0.8356,-0.8367,-0.8385,-0.8403,-0.8416,-0.843,-0.8442,-0.8455,-0.8472,-0.8493,-0.85,-0.852,-0.8539,-0.8567,-0.8579,-0.8595,-0.8595,-0.86,-0.8601,-0.8602,-0.8602,-0.8581,-0.8599,-0.8599,-0.8599,-0.8599,-0.8599,0,-0.8369,-0.8381,-0.8397,-0.8419,-0.8433,-0.8437,-0.8455,-0.8466,-0.8484,-0.85,-0.8516,-0.8538,-0.8557,-0.8574,-0.8594,-0.8603,-0.8607,-0.8608,-0.8608,-0.8611,-0.86,-0.8595,-0.8605,-0.8605,-0.8605,-0.8605,-0.8605,-0.8605,-0.8378,-0.8397,-0.8405,-0.8431,-0.8443,-0.8463,-0.8472,-0.8486,-0.8499,-0.8523,-0.8539,-0.8549,-0.8566,-0.8587,-0.8605,-0.8609,-0.8617,-0.8617,-0.8622,-0.8612,-0.8611,-0.8611,-0.8607,-0.8618,-0.8618,-0.8632,-0.8632,-0.8632]},{"header":{"parameterUnit":"m.s-1","parameterCategory":1,"la1":30.2991,"la2":30.254,"lo1":-89.0895,"lo2":-89.0444,"dy":0.0017,"dx":0.0017,"nx":28,"ny":28,"refTime":"2024-03-29T21:00:00:Z","depth":0,"parameterNumber":3,"parameterNumberName":"V-component_of_WINDS"},"data":[0,0,0,0,0,0,0,0,0,0,0,0,0,0,0,0,0,0,0,0,0,0,0,0,0,0,0,0,0,0,0,0,0,0,0,0,0,0,0,0,0,0,0,0,0,0,0,0,0,0,0,0,0,0,0,0,0,0,4.0867,4.0868,0,4.0945,4.0946,4.0947,4.091,4.0908,4.0906,4.0904,4.0979,4.0983,4.0987,0,0,0,0,0,0,0,0,0,0,0,0,0,4.0683,4.0686,4.0867,4.0868,4.0869,4.0945,4.0946,4.0947,4.091,4.0908,4.0906,4.0903,4.0978,4.0983,4.0987,0,0,0,0,0,0,0,0,0,0,0,0,0,4.0762,4.0688,4.0867,4.086,4.086,4.0945,4.0946,4.0947,4.0911,4.0908,4.0905,4.0902,4.0977,4.0982,4.0988,4.1082,0,0,4.1005,4.1008,0,0,0,0,0,0,0,0,4.0757,4.0769,4.086,4.0861,4.0861,4.0915,4.0908,4.0992,4.0912,4.0892,4.0904,4.0901,4.096,4.0967,4.0988,4.1085,4.1089,4.1006,4.1009,4.1012,4.1013,0,0,0,0,0,0,0,4.0752,4.0765,4.0898,4.0862,4.0862,4.0852,4.086,4.0924,4.0941,4.0893,4.0891,4.0901,4.096,4.0982,4.0989,4.109,4.1006,4.1011,4.1014,4.1016,4.1267,4.127,0,0,0,0,0,0,4.0747,4.0761,4.0895,4.09,4.0801,4.0857,4.0866,4.0901,4.094,4.0944,4.0903,4.0899,4.0974,4.0983,4.0992,4.1104,4.1012,4.1017,4.102,4.1264,4.1268,4.1271,0,0,0,0,0,0,4.0744,4.076,4.0892,4.083,4.0846,4.0864,4.0902,4.0904,4.0926,4.0948,4.095,4.0923,4.0972,4.0984,4.106,4.1106,4.102,4.1025,4.126,4.1265,4.127,4.1329,0,0,0,0,0,0,4.0738,4.0759,4.0796,4.0831,4.085,4.0961,4.0905,4.0907,4.0937,4.0932,4.0968,4.0971,4.0971,4.1051,4.1066,4.1112,4.1029,4.1256,4.1262,4.1268,4.1323,4.1335,4.1346,0,0,0,0,0,4.0732,4.0809,4.0798,4.0814,4.0897,4.0964,4.0974,4.0973,4.0941,4.0977,4.0991,4.097,4.1099,4.106,4.1075,4.1124,4.1253,4.1261,4.1268,4.1318,4.1333,4.1346,0,0,0,0,0,0,4.0777,4.0813,4.0802,4.0892,4.0925,4.0957,4.1003,4.0989,4.1031,4.1024,4.1021,4.1029,4.1108,4.1124,4.1079,4.1217,4.1171,4.1181,4.1204,4.1218,4.1229,4.1223,4.1034,0,0,0,0,0,4.0797,4.085,4.0879,4.0956,4.0973,4.0986,4.1015,4.1012,4.1045,4.1058,4.1078,4.111,4.1157,4.1189,4.1234,4.1325,4.1332,4.1367,4.1378,4.1387,4.1396,4.1445,4.146,4.1295,4.1295,4.1295,0,0,4.084,4.0866,4.09,4.0965,4.0991,4.1044,4.0997,4.1056,4.1095,4.1067,4.114,4.1155,4.1191,4.1275,4.1313,4.129,4.1443,4.1397,4.1404,4.1408,4.1454,4.1469,4.1483,4.13,4.1299,4.1299,0,0,4.0945,4.0971,4.1038,4.1064,4.1103,4.1111,4.1127,4.1162,4.1171,4.1245,4.1225,4.127,4.1353,4.1379,4.1402,4.1517,4.1498,4.1532,4.1591,4.1638,4.1651,4.1663,4.1702,4.1717,4.1541,4.1541,4.1541,0,4.0992,4.1073,4.1073,4.1133,4.1162,4.1141,4.1207,4.1232,4.1284,4.1304,4.1278,4.1381,4.1403,4.1493,4.1521,4.1541,4.1558,4.1527,4.165,4.1661,4.1672,4.171,4.1725,4.1545,4.1544,4.1544,4.1544,0,4.1129,4.1186,4.1234,4.1286,4.1321,4.1384,4.1392,4.1426,4.142,4.143,4.1505,4.1531,4.1581,4.1602,4.1596,4.169,4.1675,4.165,4.1603,4.1691,4.1727,4.1741,4.155,4.1549,4.1548,4.1547,0,0,4.1264,4.1315,4.1333,4.1356,4.1397,4.144,4.1502,4.1552,4.1581,4.1617,4.1667,4.1738,4.1715,4.1742,4.1739,4.178,4.1868,4.175,4.175,4.177,4.1972,4.199,4.2007,4.1856,4.1859,4.1861,4.1969,0,4.137,4.148,4.1482,4.1581,4.1633,4.1613,4.1666,4.1697,4.1708,4.1752,4.1763,4.1813,4.1779,4.1795,4.1836,4.1849,4.1908,4.1841,4.1902,4.1904,4.1893,4.2026,4.2045,4.2146,4.1983,4.1985,4.1987,0,4.151,4.1552,4.1657,4.1691,4.1713,4.1761,4.1806,4.1849,4.1883,4.1888,4.1919,4.1909,4.197,4.1923,4.2006,4.196,4.1985,4.1995,4.1999,4.2003,4.195,4.2033,4.2178,4.2192,4.2009,4.2007,4.2006,0,4.1596,4.1679,4.1752,4.1773,4.1814,4.1849,4.1867,4.1898,4.1928,4.1967,4.1986,4.2032,4.2057,4.2091,4.2094,4.2059,4.2177,4.213,4.2182,4.2182,4.2207,4.2205,4.2356,4.2224,4.2224,4.2224,4.2224,0,4.1715,4.178,4.1792,4.1837,4.1908,4.1909,4.1979,4.1995,4.2023,4.2069,4.2055,4.2098,4.21,4.2144,4.2146,4.2214,4.2225,4.223,4.2229,4.2231,4.223,4.2246,4.2239,4.2228,4.2227,4.2226,4.2226,0,4.1823,4.1834,4.1912,4.1946,4.1956,4.2007,4.2035,4.2077,4.2087,4.2146,4.2159,4.2174,4.2226,4.2232,4.2292,4.2293,4.2374,4.2367,4.2364,4.2362,4.2413,4.2408,4.2579,4.2601,4.2456,4.2457,4.2458,0,4.1897,4.1947,4.1986,4.2017,4.2038,4.2088,4.2118,4.2121,4.2153,4.2195,4.2232,4.2282,4.2322,4.2405,4.242,4.2465,4.2458,4.2515,4.2465,4.2464,4.2458,4.2454,4.2459,4.2524,4.2526,4.2527,4.2528,0,4.2028,4.2031,4.2077,4.2124,4.2162,4.2199,4.2234,4.2259,4.2266,4.2302,4.2356,4.2387,4.2448,4.2498,4.2542,4.2559,4.2545,4.2544,4.2558,4.256,4.2555,4.2557,4.2389,4.254,4.2539,4.2538,4.2537,4.2537,4.2121,4.2164,4.2198,4.2249,4.2276,4.2309,4.235,4.2366,4.2411,4.2462,4.246,4.2518,4.2549,4.2608,4.2629,4.2673,4.2654,4.2675,4.268,4.2685,4.2689,4.2549,4.2681,4.2681,4.2681,4.268,4.268,0,4.225,4.2272,4.2319,4.2368,4.2408,4.2393,4.243,4.2464,4.2516,4.2547,4.2588,4.2648,4.2696,4.2715,4.2762,4.2793,4.2788,4.2805,4.2803,4.2807,4.2704,4.2687,4.2809,4.2809,4.2809,4.2809,4.2809,4.2809,4.2322,4.2394,4.2401,4.2485,4.2505,4.2564,4.2586,4.2616,4.2641,4.271,4.275,4.2763,4.2789,4.2837,4.288,4.2884,4.2901,4.2922,4.2923,4.2827,4.2814,4.2801,4.2785,4.2926,4.2926,4.3022,4.3023,4.3023]}]]